COSMOS 886 DEB

Satellite information

Favourite Embed

Satellite Type and Status

DEBRISIN ORBIT

Key statistics

Satellite COSMOS 886 DEB at a glance.

Uptime

17884

Days in orbit

Revolutions

≈ 13.3

Per day

Orbit

LEO

Low Earth Orbit

Inclination

65.8

Latest

Satellite identification and parameters

Extended collection of information and parameters for COSMOS 886 DEB.

Object identification

Identified? True

Debris? True

Object name: COSMOS 886 DEB

International designator: 1976-126K

Object number (NORAD): 9653

Object ID (CCSDS): 9653

Country: COMMONWEALTH OF INDEPENDENT STATES (CIS)

Current information (Y/N): Y

RCS size: SMALL

Orbital parameters

Period: 108.326 minutes

Inclination: 65.7676 deg

SMA: 7527.445 km

Apoapsis: 1749.943 km

Periapsis: 548.676 km

RAAN: 258.7554 deg

Eccentricy: 0.07979251

Argument of periapsis: 259.3988 deg

Mean anomaly: 91.6299 deg

Mean motion: 13.29325684 rev/day

Mean motion (dot): 0.00004047 rev/day2

B* drag term: 0.0014380467 1/REarth

Two-line elements (TLE)

Creation date: Dec. 11, 2025, 7:14 p.m.

Reference frame: TEME

Reference center: EARTH

Epoch: Dec. 11, 2025, 12:02 p.m. UTC

TLE line 0: 0 COSMOS 886 DEB

TLE line 1: 1 09653U 76126K 25345.50143331 .00004047 00000-0 14380-2 0 9997

TLE line 2: 2 09653 65.7676 258.7554 0797925 259.3988 91.6299 13.29325684319081

Live tracking on map

Real-time ground track for satellite COSMOS 886 DEB.

In-orbit conjunctions

A list of the most updated potential collisions computed for object COSMOS 886 DEB.

Target Orbit TCA Probability of collision Miss distance Type
METEOR 3-3 LEO 2025-09-19 17:30:57 0.0001513577 650.0 (m) PAYLOAD
COSMOS 1375 DEB LEO 2025-02-12 08:27:07 0.0003844798 37.0 (m) DEBRIS

Associated space launch

Second generation ASAT satellite

COSMOS 886 DEB was lifted into orbit during the mission ‘Tsiklon-2 | IS-A 4’, on board a Tsiklon-2 space rocket.

The launch took place on Dec. 27, 1976, 12:05 p.m. from 90.

For more information about the launch, click the button.

Launch to space Tsiklon-2 | IS-A 4
Tsiklon-2 | IS-A 4

Agency: N/A

Status: Launch Successful

Launch date: Dec. 27, 1976, 12:05 p.m. UTC

Rocket: Tsiklon-2

Launch pad: 90

Location: Baikonur Cosmodrome, Republic of Kazakhstan

...

Latest news about this satellite

There are no fresh news available about this satellite. Check back as we update our databases every day.


Newsletter sign-up

Weekly statistics, charts and insights to help you stay on top of the space industry.